Location: Unspecified
(0.0000°N, 0.0000°E)
Time: 19:46:52
(UTC+00:00)

N. Korean satellite - Pass Details

Date: 21 June 2017
Orbit: 461 x 513 km, 97.2° (Epoch: 17 December)

Event Time Altitude Azimuth Distance (km) Brightness Sun altitude
Rises 17:43:57 0° 134° (SE) 2,633 9.7 4.1°
Reaches altitude 10° 17:47:13 10° 103° (ESE) 1,739 8.8 3.4°
Drops below altitude 10° 17:50:14 10° 55° (NE) 1,730 9.1 2.7°
Enters shadow 18:51:15 -58° 172° (S) 11,365 13.4 -11.3°
Maximum altitude 19:22:00 19° 259° (WSW) 1,270 9.3 -18.3°
